Regional Weather Roundup
Issued by NWS

Home | Current Version | Previous Version | Graphics & Text | Print | Product List | Glossary On
Versions: 1 2 3 4 5 6 7 8 9 10 11 12 13 14 15 16 17 18 19 20 21 22 23 24 25 26 27
000
ASUS45 KCYS 222110
RWRWY

WYOMING REGIONAL WEATHER ROUNDUP
NATIONAL WEATHER SERVICE CHEYENNE WY
300 PM MDT MON AUG 22 2016

NOTE:  "FAIR" INDICATES FEW OR NO CLOUDS BELOW 12,000 FEET
WITH NO SIGNIFICANT WEATHER AND/OR OBSTRUCTIONS TO VISIBILITY.

WYZ001-222200-
YELLOWSTONE NATIONAL PARK

CITY           SKY/WX    TMP DP  RH WIND       PRES   REMARKS
LK YELLOWSTONE   N/A     72   5   7 W9G25     30.11S
W YELLOWSTONE  NOT AVBL

$$
WYZ002>013-054>058-071-098>099-222200-
NORTHERN WYOMING

CITY           SKY/WX    TMP DP  RH WIND       PRES   REMARKS
JACKSON        SUNNY     79  21  11 SW30      30.02F
CODY           FAIR      84  36  17 NW6       29.82F
GREYBULL       FAIR      91  20   7 SE8       29.73F
WORLAND        FAIR      92  15   6 VRB7      29.76F
SHERIDAN       FAIR      93  33  12 N12       29.74F
BUFFALO        FAIR      92  15   6 MISG      29.81F
GILLETTE       FAIR      94  20   7 NW8       29.76F
HULETT         FAIR      91  34  13 NW3       29.77F
NEWCASTLE      FAIR      95  23   7 S14G23    29.77F

$$
WYZ014>020-022>026-101>103-222200-
CENTRAL WYOMING

CITY           SKY/WX    TMP DP  RH WIND       PRES   REMARKS
BIG PINEY      FAIR      82  24  12 NW12G18   30.07F
PINEDALE       FAIR      79  21  11 W10G25    30.08F
DUBOIS         FAIR      79  19  11 W25G39    30.03F
LANDER         FAIR      88  21   8 NW21G26   29.89F
RIVERTON       FAIR      89  18   7 VRB7      29.89F
CASPER         FAIR      91  22   8 SW22G28   29.88F
DOUGLAS        FAIR      93  22   7 W21G29    29.86F

$$
WYZ021-027>030-104>119-222200-
SOUTHERN WYOMING

CITY           SKY/WX    TMP DP  RH WIND       PRES   REMARKS
EVANSTON       FAIR      82  19   9 W21G30    30.12F
FORT BRIDGER   FAIR      82  22  11 W16G24    30.12F
ROCK SPRINGS   FAIR      83  22  10 SW14G24   30.06F
DIXON          FAIR      85  27  12 W12G18    30.07F
RAWLINS        FAIR      82  22  11 SW14G24   30.04F
SARATOGA       FAIR      81  28  15 NW9       30.08F
LARAMIE        PTSUNNY   74  31  20 S17G25    30.09R
CHEYENNE       FAIR      79  30  16 W20G41    30.02R
TORRINGTON     FAIR      96  21   6 SW5       29.81F
PINE BLUFFS    FAIR      90  32  12 N6        29.91F

$$




USA.gov is the U.S. government's official web portal to all federal, state and local government web resources and services.